Tracking 19575 objects as of 19-Feb-2019
HD Live streaming from Space Station
objects crossing your sky now

BEIDOU 1B

Track BEIDOU 1B now!
BEIDOU 1B is classified as:


NORAD ID: 26643
Int'l Code: 2000-082A
Perigee: 35,733.2 km
Apogee: 36,432.9 km
Inclination: 8.8 °
Period: 1,450.9 minutes
Semi major axis: 42454 km
RCS: 0.1238 m2 (medium)
Launch date: December 20, 2000
Source: People's Republic of China (PRC)
Launch site: Xichang Space Center, China (XSC)

Space-bsaed navigation and positioning system to improve accuracy of weapons and situational awareness of military forces.
aabbcc
Your satellite tracking list
Your tracking list is empty




NASA's NSSDC Master Catalog

Two Line Element Set (TLE):
1 26643U 00082A   19048.51232330 -.00000095 +00000-0 +00000-0 0  9997
2 26643 008.8451 044.2246 0082406 019.3936 003.3025 00.99248677025510
Source of the keplerian elements: AFSPC